User: anonymous   Login
Location: NJAA Observatory
(40.6819°N, 74.8979°W)
Time: 03:59:34
(UTC-04:00)
Language:

Cosmos 2263 Rocket - Orbit

View from above orbital plane
View from above orbital plane
View from above satellite
View from above satellite

Ground track
Ground track

The orbit data is extracted from the following two-line orbital elements,

1 22803U 93059B   16148.01770500  .00000123  00000-0  85186-4 0  9999
2 22803  70.9901 343.1676 0019344 255.2681 104.6299 14.16742473173587
Epoch (UTC): 27 May 2016 00:25:29
Eccentricity: 0.0019344
inclination: 70.9901°
perigee height: 822 km
apogee height: 850 km
right ascension of ascending node: 343.1676°
argument of perigee: 255.2681°
revolutions per day: 14.16742473
mean anomaly at epoch: 104.6299°
orbit number at epoch: 17358

The dashed part of the orbit path shows where the satellite is in the earth's shadow,  

DLR